Terminal Aerodrome Forecast
Issued by NWS Caribou, ME

Home | Current Version | Previous Version | Text Only | Print | Product List | Glossary On
Versions: 1 2 3 4 5 6 7 8 9 10 11 12 13 14 15 16 17 18 19 20 21
000
FTUS41 KCAR 011121
TAFCAR
TAF
KCAR 011121Z 0112/0212 31013G23KT P6SM SCT250
     FM020400 29006KT P6SM FEW250
     FM021000 32005KT P6SM SCT250=

USA.gov is the U.S. government's official web portal to all federal, state and local government web resources and services.